Pope Field Airport, NC

8:08 AM EDT on October 18, 2017 (GMT -0400)
Pope Field Airport

Weather History for KPOB - March, 2012

Change the Weather History Date:

Friday, March 9, 2012

  Actual Average Record
Temperature  
Mean Temperature 50 °F -  
Max Temperature 62 °F 61 °F 84 °F (2009)
Min Temperature 37 °F 40 °F 26 °F (2005)
Degree Days  
Heating Degree Days 14    
Moisture  
Dew Point 53 °F    
Average Humidity 84    
Maximum Humidity 100    
Minimum Humidity 35    
Precipitation  
Precipitation 0.09 in - - ()
Sea Level Pressure  
Sea Level Pressure 30.15 in    
Wind  
Wind Speed 7 mph (WNW)    
Max Wind Speed 15 mph    
Max Gust Speed 18 mph    
Visibility 8 miles    
Events Rain    
Averages and records for this station are not official NWS values.
T = Trace of Precipitation, MM = Missing Value Source: NWS Daily Summary

Daily Weather History Graph

Daily Weather History Graph

Search for Another Location

Airport or City:

Trip Planner

Search our weather history database for the weather conditions in past years. The results will help you decide how hot, cold, wet, or windy it might be!

Date:

Astronomy

Mar. 09, 2012 Rise Set
Actual Time 6:34 AM EST 6:19 PM EST
Civil Twilight 6:09 AM EST 6:44 PM EST
Nautical Twilight 5:39 AM EST 7:13 PM EST
Astronomical Twilight 5:10 AM EST 7:43 PM EST
Moon 8:09 PM EST (3/9) 6:57 AM EST (3/9)
Length of Visible Light 12h 35m
Length of Day
11h 44m
Full, 98% of the Moon is Illuminated
Mar 9
Full
Mar 14
Last Quarter
Mar 22
New
Mar 30
First Quarter
Apr 6
Full

Hourly Weather History & Observations

Time (EST) Temp. Windchill Dew Point Humidity Pressure Visibility Wind Dir Wind Speed Gust Speed Precip Events Conditions
12:55 AM 59.7 °F - 57.2 °F 91% 30.14 in 10.0 mi SSW 8.1 mph - N/A   Scattered Clouds
1:55 AM 59.5 °F - 57.4 °F 93% 30.13 in 10.0 mi SW 9.2 mph - N/A   Overcast
2:55 AM 59.5 °F - 57.2 °F 92% 30.11 in 10.0 mi SW 8.1 mph - N/A   Overcast
3:55 AM 59.4 °F - 57.0 °F 92% 30.11 in 10.0 mi WSW 6.9 mph - N/A   Overcast
4:36 AM 59.0 °F - 57.2 °F 94% 30.12 in 10.0 mi SW 6.9 mph - N/A   Mostly Cloudy
4:43 AM 59.0 °F - 57.2 °F 94% 30.12 in 10.0 mi SW 8.1 mph - N/A   Mostly Cloudy
5:55 AM 59.9 °F - 58.3 °F 94% 30.08 in 10.0 mi SSW 10.4 mph - 0.00 in   Overcast
6:40 AM 59.0 °F - 57.2 °F 94% 30.09 in 10.0 mi West 4.6 mph - N/A   Light Drizzle
6:55 AM 59.7 °F - 58.3 °F 95% 30.10 in 9.0 mi West 4.6 mph - 0.01 in   Light Drizzle
7:16 AM 59.0 °F - 59.0 °F 100% 30.11 in 9.0 mi West 3.5 mph - N/A Rain Light Rain
7:21 AM 59.0 °F - 59.0 °F 100% 30.11 in 7.0 mi WNW 3.5 mph - N/A Rain Light Rain
7:30 AM 59.0 °F - 59.0 °F 100% 30.11 in 3.0 mi NW 4.6 mph - N/A Rain Rain
7:37 AM 59.0 °F - 59.0 °F 100% 30.12 in 4.0 mi WNW 5.8 mph - N/A Rain Rain
7:46 AM 59.0 °F - 59.0 °F 100% 30.12 in 6.0 mi West 4.6 mph - N/A Rain Light Rain
7:48 AM 59.0 °F - 59.0 °F 100% 30.12 in 4.0 mi West 5.8 mph - N/A Rain Light Rain
7:50 AM 59.0 °F - 59.0 °F 100% 30.12 in 2.5 mi West 5.8 mph - N/A Rain Rain
7:52 AM 59.0 °F - 59.0 °F 100% 30.12 in 2.0 mi West 4.6 mph - N/A Rain Rain
7:53 AM 59.0 °F - 59.0 °F 100% 30.12 in 1.8 mi West 4.6 mph - N/A Rain Rain
7:55 AM 59.7 °F - 58.6 °F 96% 30.12 in 1.8 mi WSW 4.6 mph - 0.06 in Rain Rain
7:59 AM 59.0 °F - 59.0 °F 100% 30.12 in 2.0 mi West 4.6 mph - N/A Rain Light Rain
8:02 AM 59.0 °F - 59.0 °F 100% 30.12 in 2.5 mi West 4.6 mph - N/A Rain Light Rain
8:04 AM 59.0 °F - 59.0 °F 100% 30.12 in 3.0 mi West 5.8 mph - N/A Rain Light Rain
8:17 AM 60.8 °F - 59.0 °F 94% 30.13 in 2.5 mi West 5.8 mph - N/A Rain Light Rain
8:20 AM 60.8 °F - 59.0 °F 94% 30.13 in 2.0 mi West 4.6 mph - N/A Rain Light Rain
8:26 AM 60.8 °F - 59.0 °F 94% 30.13 in 2.5 mi WNW 5.8 mph - N/A Rain Light Rain
8:30 AM 60.8 °F - 59.0 °F 94% 30.13 in 3.0 mi WNW 6.9 mph - N/A Rain Light Rain
8:41 AM 60.8 °F - 59.0 °F 94% 30.13 in 9.0 mi West 5.8 mph - N/A   Light Drizzle
8:48 AM 60.8 °F - 59.0 °F 94% 30.13 in 10.0 mi West 4.6 mph - N/A   Light Drizzle
8:49 AM 60.8 °F - 59.0 °F 94% 30.13 in 10.0 mi WNW 5.8 mph - N/A   Overcast
8:53 AM 60.8 °F - 59.0 °F 94% 30.13 in 10.0 mi WNW 5.8 mph - N/A   Overcast
8:55 AM 60.6 °F - 59.7 °F 97% 30.14 in 10.0 mi West 4.6 mph - 0.02 in   Overcast
8:56 AM 60.8 °F - 59.0 °F 94% 30.14 in 10.0 mi West 5.8 mph - N/A   Overcast
9:04 AM 60.8 °F - 59.0 °F 94% 30.14 in 10.0 mi NW 4.6 mph - N/A   Overcast
9:09 AM 60.8 °F - 59.0 °F 94% 30.14 in 10.0 mi NW 5.8 mph - N/A   Overcast
9:20 AM 60.8 °F - 59.0 °F 94% 30.14 in 10.0 mi NW 5.8 mph - N/A   Overcast
9:27 AM 60.8 °F - 59.0 °F 94% 30.15 in 10.0 mi NW 4.6 mph - N/A   Overcast
9:34 AM 60.8 °F - 59.0 °F 94% 30.15 in 10.0 mi NW 4.6 mph - N/A   Overcast
9:42 AM 60.8 °F - 59.0 °F 94% 30.14 in 10.0 mi NNW 3.5 mph - N/A   Overcast
9:55 AM 60.8 °F - 59.2 °F 94% 30.15 in 10.0 mi NW 4.6 mph - N/A   Mostly Cloudy
10:55 AM 61.9 °F - 58.8 °F 90% 30.16 in 10.0 mi NW 6.9 mph - N/A   Mostly Cloudy
11:11 AM 62.6 °F - 57.2 °F 82% 30.17 in 10.0 mi North 5.8 mph - N/A   Mostly Cloudy
11:12 AM 62.6 °F - 57.2 °F 82% 30.17 in 10.0 mi Variable 5.8 mph - N/A   Mostly Cloudy
11:13 AM 62.6 °F - 57.2 °F 82% 30.17 in 10.0 mi Variable 5.8 mph - N/A   Mostly Cloudy
11:15 AM 62.6 °F - 57.2 °F 82% 30.17 in 10.0 mi NNW 6.9 mph - N/A   Mostly Cloudy
11:16 AM 62.6 °F - 57.2 °F 82% 30.16 in 10.0 mi NNW 8.1 mph - N/A   Mostly Cloudy
11:34 AM 60.8 °F - 57.2 °F 88% 30.16 in 10.0 mi North 15.0 mph - N/A   Overcast
11:37 AM 60.8 °F - 55.4 °F 82% 30.17 in 10.0 mi North 11.5 mph - N/A   Overcast
11:55 AM 60.1 °F - 53.8 °F 80% 30.17 in 10.0 mi North 9.2 mph - N/A   Overcast
11:56 AM 60.8 °F - 53.6 °F 77% 30.17 in 10.0 mi North 8.1 mph - N/A   Overcast
11:58 AM 60.8 °F - 53.6 °F 77% 30.17 in 10.0 mi North 8.1 mph - N/A Rain Light Rain
12:08 PM 60.8 °F - 51.8 °F 72% 30.18 in 10.0 mi NNW 6.9 mph - N/A   Mostly Cloudy
12:51 PM 60.8 °F - 42.8 °F 52% 30.18 in 10.0 mi North 10.4 mph 18.4 mph N/A Rain Light Rain
12:55 PM 60.3 °F - 44.6 °F 56% 30.18 in 10.0 mi North 5.8 mph - 0.00 in Rain Light Rain
1:05 PM 60.8 °F - 41.0 °F 48% 30.19 in 10.0 mi North 9.2 mph - N/A   Mostly Cloudy
1:32 PM 59.0 °F - 32.0 °F 36% 30.18 in 10.0 mi NNE 11.5 mph - N/A Rain Light Rain
1:43 PM 59.0 °F - 33.8 °F 39% 30.18 in 10.0 mi North 10.4 mph - N/A   Mostly Cloudy
1:55 PM 59.4 °F - 32.0 °F 36% 30.17 in 10.0 mi NNE 9.2 mph - 0.00 in   Mostly Cloudy
2:55 PM 60.4 °F - 33.4 °F 36% 30.17 in 10.0 mi NNE 13.8 mph - N/A   Mostly Cloudy
3:55 PM 60.3 °F - 32.2 °F 35% 30.17 in 10.0 mi North 6.9 mph - N/A   Clear
4:55 PM 58.8 °F - 32.5 °F 37% 30.19 in 10.0 mi NNE 11.5 mph - N/A   Partly Cloudy
5:55 PM 56.5 °F - 33.3 °F 42% 30.21 in 10.0 mi NNE 4.6 mph - N/A   Clear
6:55 PM 50.5 °F - 37.2 °F 60% 30.22 in 10.0 mi Calm Calm - N/A   Clear
7:55 PM 45.5 °F - 38.8 °F 78% 30.25 in 10.0 mi Calm Calm - N/A   Clear
8:55 PM 44.4 °F 42.9 °F 39.4 °F 82% 30.27 in 10.0 mi Variable 3.5 mph - N/A   Clear
9:55 PM 41.9 °F - 37.9 °F 86% 30.29 in 10.0 mi Calm Calm - N/A   Clear
10:55 PM 39.6 °F 37.4 °F 36.7 °F 89% 30.30 in 10.0 mi West 3.5 mph - N/A   Clear
11:55 PM 37.6 °F - 35.6 °F 93% 30.31 in 10.0 mi Calm Calm - N/A   Clear